#timestamp,LO_Frequency,Hit,StdDev 
1553392815.2,286047001.1,N
1553392835.0,286047001.0,N
1553392835.9,286047001.0,N
1553392855.8,286046999.9,N
1553392875.6,286047001.6,N
1553392895.4,286047001.9,N
1553392915.3,286047002.6,N
1553392935.2,286047002.8,N
1553392955.0,286046999.0,N
1553392955.9,286046999.0,N
1553392975.8,286046996.7,N
1553392995.6,286046997.8,N
1553393015.4,286047000.0,N
1553393035.3,286047002.7,N
1553393055.1,286046998.2,N
1553393075.8,286047000.2,N
1553393095.7,286046996.6,N
1553393115.5,286047000.6,N
1553393135.4,286046998.8,N
1553393155.2,286046998.9,N
1553393175.0,286046997.3,N
1553393175.9,286046997.3,N
1553393195.8,286047001.2,N
1553393215.6,286047001.1,N
1553393235.5,286047001.1,N
1553393255.3,286046999.9,N
1553393275.1,286047002.6,N
1553393295.9,286047001.4,N
1553393315.6,286047001.3,N
1553393335.5,286047001.3,N
1553393355.3,286047004.2,N
1553393375.1,286047001.5,N
1553393395.9,286047003.5,N
1553393415.7,286047005.9,N
1553393435.6,286047004.0,N
1553393455.4,286047001.4,N
1553393475.2,286047001.9,N
1553393495.1,286047001.0,N
1553393496.0,286047001.0,N
1553393515.8,286046998.3,N
1553393535.6,286046999.8,N
1553393555.5,286047000.5,N
1553393575.3,286047000.7,N
1553393595.2,286047000.8,N
1553393615.9,286046998.1,N
1553393635.7,286046998.3,N
1553393655.6,286047000.5,N
1553393675.4,286047001.1,N
1553393695.2,286047001.0,N
1553393715.1,286047000.9,N
1553393716.0,286047000.9,N
1553393735.8,286047000.7,N
1553393755.7,286047000.5,N
1553393775.5,286047000.7,N
1553393795.3,286047001.1,N
1553393815.2,286046996.6,N
1553393835.9,286046999.6,N
1553393885.8,286046997.7,E
1553393895.7,286046997.1,N
1553393915.5,286046999.2,P
1553393935.4,286046997.4,N
1553393955.2,286046996.9,Y
1553393975.0,286047000.8,P
1553393975.9,286047000.8,N
1553393995.8,286047000.4,N
1553394015.6,286047000.5,N
1553394035.4,286046998.5,N
1553394055.3,286047000.8,N
1553394075.1,286047001.0,N
1553394095.9,286047000.9,N
1553394115.7,286047001.1,N
1553394135.5,286046998.4,N
1553394155.4,286047001.2,N
1553394175.2,286046998.1,N
1553394195.1,286046998.4,N
1553394196.0,286046998.4,N
1553394215.8,286046999.6,N
1553394235.6,286046997.2,N
1553394255.5,286046996.5,N
1553394275.3,286046999.5,N
1553394295.2,286046996.6,N
1553394315.9,286046997.2,N
1553394335.7,286046996.6,N
1553394355.6,286046996.6,N
1553394375.4,286046995.0,N
1553394395.2,286046995.6,N
1553394415.1,286046995.7,N
1553394416.0,286046995.7,N
1553394435.8,286046996.2,N
1553394455.7,286046995.2,N
1553394475.5,286046995.7,N
1553394495.3,286046998.0,N
1553394515.2,286046996.8,N
1553394535.0,286046995.3,N
1553394535.9,286046995.3,N
1553394555.7,286046997.6,N
1553394575.6,286046995.6,N
1553394595.4,286046996.4,N
1553394615.3,286046996.0,N
1553394635.1,286046995.5,N
1553394636.0,286046995.5,N
1553394655.8,286046994.0,Y
1553394675.7,286046995.6,P
1553394695.5,286046994.9,P
1553394715.3,286046997.4,P
1553394735.2,286046997.4,N
1553394755.0,286046999.5,N
1553394755.9,286046999.5,N
1553394775.8,286046996.5,N
1553394795.6,286046999.1,N
1553394815.4,286046998.9,N
1553394835.3,286046997.5,N
1553394855.1,286046995.4,Y
1553394875.9,286046999.3,P
1553394895.7,286046999.5,N
1553394915.5,286047000.4,N
1553394935.4,286047001.2,N
1553394955.2,286047000.0,N
1553394975.0,286046998.1,N
1553394975.9,286046998.1,N
1553394995.8,286047000.7,N
1553395015.6,286046998.9,N
1553395035.5,286046998.9,N
1553395055.3,286047000.7,N
1553395075.5,286046998.4,N
1553395095.3,286046999.0,N
1553395115.2,286047001.0,N
1553395135.0,286047000.8,N
1553395135.9,286047000.8,N
1553395155.8,286047000.0,N
1553395175.6,286046999.9,N
1553395195.4,286046998.4,N
1553395215.3,286046998.7,N
1553395235.1,286046999.3,N
1553395255.8,286046998.1,N
1553395275.7,286047001.1,N
1553395295.5,286047001.1,N
1553395315.3,286046998.5,N
1553395335.2,286047000.7,N
1553395355.0,286046999.1,N
1553395355.9,286046999.1,N
1553395375.8,286046996.6,Y
1553395395.6,286046998.3,P
1553395415.4,286046999.5,N
1553395435.3,286046999.4,N
1553395455.1,286046998.5,N
1553395475.9,286046998.5,N
1553395495.7,286046999.4,N
1553395515.5,286046999.1,N
1553395535.4,286046996.6,Y
1553395555.2,286046999.4,P
1553395575.0,286046998.4,P
1553395575.9,286046998.4,P
1553395595.8,286046998.6,Y
1553395615.6,286047001.5,P
1553395635.5,286047002.8,N
1553395655.3,286047000.6,N
1553395675.1,286047000.6,N
1553395695.9,286047002.4,N
1553395715.7,286047001.4,N
1553395735.5,286047002.3,N
1553395755.4,286047000.5,N
1553395775.2,286047000.9,N
1553395795.1,286046998.3,N
1553395796.0,286046998.3,N
1553395815.8,286046998.8,N
1553395835.6,286046998.4,N
1553395855.5,286047000.8,N
1553395875.3,286047000.5,N
1553395895.1,286046998.2,N
1553395915.9,286047002.7,N
1553395935.7,286046999.1,N
1553395955.6,286046998.3,N
1553395975.4,286046998.5,N
1553395995.2,286046998.3,N
1553396015.1,286046999.3,N
1553396016.0,286046999.3,N
1553396035.8,286047000.8,N
1553396055.6,286047000.3,N
1553396075.5,286047000.1,N
1553396095.3,286047000.1,N
1553396115.2,286047002.2,N
1553396135.9,286047000.2,N
1553396155.7,286047004.0,N
1553396175.6,286047002.5,N
1553396195.4,286047002.8,N
1553396215.2,286047001.3,N
1553396235.1,286047003.5,N
1553396236.0,286047003.5,N
1553396255.8,286047000.0,N
1553396275.7,286047001.4,N
1553396295.5,286047005.4,Y
1553396315.3,286047002.5,P
1553396335.2,286046999.9,N
1553396355.0,286046999.9,N
1553396355.9,286046999.9,N
1553396375.8,286047002.0,N
1553396395.6,286047002.3,N
